STARLINK-34217

导读 | 豆包AI

STARLINK-34217是美国SpaceX公司星链(Starlink)低轨卫星互联网星座计划中的一颗卫星,于2025年6月23日由美国发射入轨。 星链项目旨在通过大规模低轨卫星组网,为全球偏远无基础设施覆盖区域提供高速低延迟宽带服务,该卫星属于星链2025年规模化部署的组网卫星,将服务全球卫星互联网接入,助力星链扩大覆盖范围与网络容量,目前星链服务已覆盖全球百余个国家和地区。

基本信息
目录编号:
64488
目录名称:
STARLINK-34217
国际标识:
2025-133S
轨道中心:
EARTH
卫星名称:
STARLINK-34217
卫星全名:
STARLINK-34217
卫星状态:
在轨 (已飞行310 天)
发射日期:
2025-06-23 UTC
国别 :
美国 (US)
星等 :
--
轨道信息
数据来源 国际轨道数据
星历时间: 2026-04-28T23:18:23+0800
1天前
查看轨道信息
半长轴: 6853.347km
偏心率: 0.0001144
轨道倾角: 53.158°
近地点辐角 78.811°
升交点赤经 244.934°
平近点角 281.302°
近地点: 474.425km
远地点: 475.995km
周期: 94.105分钟
每日圈数: 15.30202
详细信息
使用方式:
暂无
2D轨道图
3D轨道图
轨道高度分析图
轨道倾角分析图
轨道综合分析图
查看轨道综合分析图